This demonstration page uses our WeatherBlox Daily Observations layout. Learn more.

Left ArrowRight Arrow

40.92945, -100.16068

Hourly Observations for February 25, 2021

Temp ( °F °C ) Dew Point ( °F °C ) Humidity (%) Winds ( mph kmh ) Pressure ( in mb ) Visibility ( mi km ) Precip ( " mm )
12:15 am 00:15 Clear 29 -1.8 24 -4.6 81 81 WNW 8 13 30.49 1032 10 16.0934 0 0
12:35 am 00:35 Clear 29 -1.7 24 -4.6 81 81 NW 8 13 30.5 1033 10 16.0934 0 0
12:55 am 00:55 Clear 28 -2 23 -4.8 81 81 NW 7 11 30.5 1033 10 16.0934 0 0
1:15 am 01:15 Partly Cloudy 26 -3.1 23 -4.9 88 88 W 6 9 30.52 1034 10 16.0934 0 0
1:35 am 01:35 Partly Cloudy 26 -3.1 23 -4.9 88 88 W 5 7 30.52 1034 10 16.0934 0 0
1:55 am 01:55 Partly Cloudy 27 -3 23 -4.9 87 87 W 6 9 30.52 1033 10 16.0934 0 0
2:15 am 02:15 Mostly Cloudy 27 -2.8 24 -4.7 87 87 WNW 6 9 30.52 1033 10 16.0934 0 0
2:35 am 02:35 Mostly Cloudy 28 -2 24 -4.2 85 85 NNW 5 7 30.51 1033 10 16.0934 0 0
2:55 am 02:55 Cloudy 28 -2.1 24 -4.3 85 85 WNW 5 7 30.51 1033 10 16.0934 0 0
3:15 am 03:15 Mostly Cloudy 28 -2.3 25 -4.1 88 88 W 5 7 30.5 1033 10 16.0934 0 0
3:35 am 03:35 Partly Cloudy 27 -2.9 24 -4.5 89 89 W 6 9 30.51 1033 10 16.0934 0 0
3:55 am 03:55 Clear 27 -3 24 -4.5 90 90 W 5 7 30.5 1033 10 16.0934 0 0
4:15 am 04:15 Clear 26 -3.5 24 -4.7 92 92 W 5 7 30.5 1033 10 16.0934 0 0
4:35 am 04:35 Clear 27 -3 24 -4.5 90 90 WNW 6 9 30.5 1033 10 16.0934 0 0
4:55 am 04:55 Clear 28 -2.5 25 -4.1 89 89 WNW 5 7 30.49 1033 10 16.0934 0 0
5:15 am 05:15 Clear 28 -2.5 25 -4 90 90 W 3 6 30.49 1033 10 16.0934 0 0
5:35 am 05:35 Partly Cloudy 28 -2.3 25 -3.8 90 90 W 5 7 30.49 1033 10 16.0934 0 0
5:55 am 05:55 Partly Cloudy 28 -2.2 25 -3.8 89 89 WNW 6 9 30.49 1033 10 16.0934 0 0
6:15 am 06:15 Mostly Cloudy 28 -2.5 25 -4 90 90 W 6 9 30.5 1033 10 16.0934 0 0
6:35 am 06:35 Cloudy 28 -2.2 25 -4 88 88 NNW 8 13 30.49 1033 10 16.0934 0 0
6:55 am 06:55 Mostly Cloudy 27 -2.7 24 -4.5 88 88 WNW 5 7 30.5 1033 10 16.0934 0 0
7:15 am 07:15 Partly Cloudy 26 -3.1 24 -4.6 90 90 WNW 5 7 30.5 1033 10 16.0934 0 0
7:35 am 07:35 Sunny 26 -3.3 23 -4.8 90 90 NNW 7 11 30.49 1033 10 16.0934 0 0
7:55 am 07:55 Sunny 26 -3.5 23 -5 89 89 NW 5 7 30.5 1033 10 16.0934 0 0
8:15 am 08:15 Mostly Cloudy 26 -3.1 24 -4.7 89 89 NW 5 7 30.52 1034 10 16.0934 0 0
8:35 am 08:35 Cloudy 27 -2.8 24 -4.7 87 87 WNW 6 9 30.53 1034 10 16.0934 0 0
8:55 am 08:55 Cloudy 28 -2.3 24 -4.3 86 86 W 6 9 30.53 1034 10 16.0934 0 0
9:15 am 09:15 Cloudy 28 -2 24 -4.2 85 85 W 3 6 30.53 1034 10 16.0934 0 0
9:35 am 09:35 Cloudy 29 -1.6 24 -4.4 81 81 WNW 3 6 30.52 1034 10 16.0934 0 0
9:55 am 09:55 Cloudy 30 -1.3 25 -4.1 81 81 WNW 5 7 30.52 1034 10 16.0934 0 0
10:15 am 10:15 Cloudy 30 -1 25 -4 80 80 WNW 3 6 30.51 1033 10 16.0934 0 0
10:35 am 10:35 Cloudy 31 -0.6 25 -4 78 78 NW 3 6 30.5 1033 10 16.0934 0 0
10:55 am 10:55 Cloudy 31 -0.3 25 -3.9 77 77 Calm 30.49 1033 10 16.0934 0 0
11:15 am 11:15 Cloudy 32 0.2 26 -3.1 79 79 Calm 30.49 1032 10 16.0934 0 0
11:35 am 11:35 Cloudy 34 1 26 -3.3 73 73 Calm 30.47 1032 10 16.0934 0 0
11:55 am 11:55 Cloudy 35 1.5 25 -4 67 67 Calm 30.45 1031 10 16.0934 0 0
12:15 pm 12:15 Mostly Cloudy 36 2.2 24 -4.3 63 63 Calm 30.44 1031 10 16.0934 0 0
12:35 pm 12:35 Cloudy 37 2.9 24 -4.6 58 58 S 6 9 30.41 1030 10 16.0934 0 0
12:55 pm 12:55 Mostly Cloudy 38 3.5 23 -4.8 55 55 SSW 5 7 30.39 1029 10 16.0934 0 0
1:15 pm 13:15 Mostly Cloudy 39 3.7 23 -4.8 54 54 S 6 9 30.38 1029 10 16.0934 0 0
1:35 pm 13:35 Cloudy 39 4.1 22 -5.8 49 49 SSW 8 13 30.36 1028 10 16.0934 0 0
1:55 pm 13:55 Cloudy 40 4.5 22 -5.7 48 48 SSW 9 15 30.33 1027 10 16.0934 0 0
2:15 pm 14:15 Cloudy 40 4.7 21 -5.9 47 47 SSW 12 19 30.32 1027 10 16.0934 0 0
2:35 pm 14:35 Cloudy 41 4.8 22 -5.3 48 48 SSW 10 17 30.3 1026 10 16.0934 0 0
2:55 pm 14:55 Cloudy 41 4.8 24 -4.7 51 51 SW 13 20 30.29 1026 10 16.0934 0 0
3:15 pm 15:15 Cloudy 40 4.6 25 -4 54 54 SW 14 22 30.29 1026 10 16.0934 0 0
3:35 pm 15:35 Cloudy 40 4.5 25 -3.8 55 55 SW 12 19 30.28 1026 10 16.0934 0 0
3:55 pm 15:55 Cloudy 40 4.5 25 -3.8 55 55 SSW 10 17 30.27 1025 10 16.0934 0 0
4:15 pm 16:15 Cloudy 40 4.6 25 -3.7 55 55 SW 10 17 30.25 1024 10 16.0934 0 0
4:35 pm 16:35 Cloudy 40 4.7 24 -4.6 51 51 SSW 13 20 30.24 1024 10 16.0934 0 0
4:55 pm 16:55 Cloudy 40 4.5 25 -4.1 54 54 SSW 10 17 30.23 1024 10 16.0934 0 0
5:15 pm 17:15 Mostly Cloudy 40 4.2 26 -3.1 59 59 SSW 9 15 30.23 1024 10 16.0934 0 0
5:35 pm 17:35 Mostly Cloudy 40 4.7 27 -2.7 59 59 S 7 11 30.2 1023 10 16.0934 0 0
5:55 pm 17:55 Partly Cloudy 40 4.3 28 -2.5 62 62 S 8 13 30.21 1023 10 16.0934 0 0
6:15 pm 18:15 Sunny 38 3.1 27 -2.6 67 67 S 9 15 30.21 1023 10 16.0934 0 0
6:35 pm 18:35 Clear 36 2 28 -2.5 72 72 S 7 11 30.21 1023 10 16.0934 0 0
6:55 pm 18:55 Clear 35 1.5 27 -2.6 74 74 S 7 11 30.21 1023 10 16.0934 0 0
7:15 pm 19:15 Clear 33 0.5 27 -2.7 79 79 SSE 8 13 30.21 1023 10 16.0934 0 0
7:35 pm 19:35 Clear 34 1 27 -3 75 75 SSE 8 13 30.2 1023 10 16.0934 0 0
7:55 pm 19:55 Clear 33 0.8 27 -2.9 77 77 SSE 9 15 30.2 1023 10 16.0934 0 0
8:15 pm 20:15 Clear 33 0.7 27 -3 77 77 SSE 9 15 30.19 1022 10 16.0934 0 0
8:35 pm 20:35 Clear 33 0.8 27 -3 76 76 SSE 9 15 30.18 1022 10 16.0934 0 0
8:55 pm 20:55 Clear 34 1 27 -3 75 75 SSE 12 19 30.17 1022 10 16.0934 0 0
9:15 pm 21:15 Clear 34 1 26 -3.1 74 74 S 13 20 30.17 1022 10 16.0934 0 0
9:35 pm 21:35 Clear 35 1.5 26 -3.3 71 71 S 14 22 30.16 1021 10 16.0934 0 0
9:55 pm 21:55 Clear 34 1.2 26 -3.6 71 71 S 14 22 30.16 1021 10 16.0934 0 0
10:15 pm 22:15 Clear 34 1.3 25 -4 68 68 S 15 24 30.15 1021 10 16.0934 0 0
10:35 pm 22:35 Clear 34 1.1 24 -4.4 67 67 S 16 26 30.16 1021 10 16.0934 0 0
10:55 pm 22:55 Clear 33 0.8 24 -4.6 68 68 S 20 31 30.15 1021 10 16.0934 0 0
11:15 pm 23:15 Clear 33 0.5 23 -4.9 67 67 S 17 28 30.14 1021 10 16.0934 0 0
11:35 pm 23:35 Clear 33 0.3 23 -5 68 68 S 16 26 30.13 1020 10 16.0934 0 0
11:55 pm 23:55 Clear 32 0 23 -5 69 69 S 15 24 30.14 1021 10 16.0934 0 0

Powered by AerisWeather